KD4IZ-13 Weather Reports


time (UTC)temp
C
wind
direction
speed
KPH
gust
KPH
rain 1hr
cm
rain 24hr
cm
rain mn
cm
humidity
%
barometer
mb
20260507071717 10 32 0.0 0.0 0.13 0.20 0.20 99 1012.8
20260507071213 10 31 0.0 0.0 0.13 0.20 0.20 99 1012.6
20260507070710 10 31 0.0 0.0 0.00 0.18 0.18 99 1012.7
20260507070207 10 30 1.6 1.6 0.18 0.18 0.18 99 1012.8
20260507065703 10 25 1.6 1.6 0.13 0.15 0.15 99 1012.4
20260507065201 10 61 0.0 1.6 0.13 0.15 0.15 99 1012.7
20260507064658 10 13 1.6 1.6 0.00 0.13 0.13 99 1012.9
20260507064156 10 27 1.6 1.6 0.00 0.13 0.13 99 1012.8
20260507063654 10 55 1.6 1.6 0.00 0.13 0.13 99 1012.7
20260507063150 10 58 0.0 1.6 0.18 0.13 0.13 99 1012.9
20260507062647 10 30 3.2 3.2 0.18 0.13 0.13 99 1013.0
20260507062145 10 28 3.2 3.2 0.00 0.10 0.10 99 1012.9
20260507061643 11 27 1.6 3.2 0.13 0.10 0.10 99 1012.8
20260507061140 11 15 4.8 4.8 0.13 0.10 0.10 99 1012.8
20260507060638 11 355 4.8 4.8 0.00 0.08 0.08 99 1012.8
20260507060134 11 1 3.2 3.2 0.18 0.08 0.08 99 1012.8
20260507055630 11 13 1.6 3.2 0.18 0.08 0.08 99 1012.7
20260507055126 11 33 1.6 1.6 0.00 0.05 0.05 99 1012.9
20260507054622 11 46 1.6 1.6 0.00 0.05 0.05 99 1012.8
20260507054119 11 54 0.0 0.0 0.00 0.05 0.05 99 1012.6
20260507053617 11 57 1.6 1.6 0.00 0.05 0.05 99 1012.6
20260507053115 11 32 0.0 0.0 0.00 0.05 0.05 99 1012.6
20260507052613 11 24 1.6 1.6 0.00 0.05 0.05 99 1012.6
20260507052109 11 31 0.0 0.0 0.00 0.05 0.05 99 1012.8
20260507051607 11 56 0.0 0.0 0.00 0.05 0.05 99 1012.6
20260507051104 11 43 0.0 1.6 0.00 0.05 0.05 99 1012.8
20260507050600 11 85 3.2 4.8 0.00 0.05 0.05 99 1013.1
20260507050057 11 36 1.6 1.6 0.00 0.05 0.05 99 1012.7
20260507045554 11 15 6.4 8.0 0.00 0.05 0.05 99 1012.7
20260507045051 11 347 4.8 4.8 0.00 0.05 0.05 99 1013.0
20260507044547 11 36 0.0 1.6 0.00 0.05 0.05 99 1012.8
20260507044045 11 325 1.6 1.6 0.00 0.05 0.05 99 1013.1
20260507043540 11 16 4.8 8.0 0.00 0.05 0.05 99 1012.6
20260507043038 11 34 0.0 1.6 0.00 0.05 0.05 99 1012.5
20260507042533 11 341 8.0 8.0 0.00 0.05 0.05 99 1012.4
20260507042029 11 20 4.8 4.8 0.13 0.05 0.05 99 1012.3
20260507041526 12 318 6.4 8.0 0.30 0.05 0.05 99 1012.6
20260507041023 12 65 4.8 4.8 0.18 0.03 0.03 99 1012.5
20260507040519 12 91 3.2 3.2 0.00 0.00 0.00 99 1012.0
20260507040015 12 356 9.7 11.3 0.00 0.53 0.53 99 1012.2
20260507035512 12 357 4.8 4.8 0.00 0.53 0.53 99 1012.2
20260507035009 13 17 4.8 4.8 0.00 0.53 0.53 99 1011.9
20260507034506 13 17 1.6 3.2 0.13 0.53 0.53 99 1011.9
20260507034004 13 17 3.2 3.2 0.13 0.53 0.53 99 1011.8
20260507033501 13 36 1.6 1.6 0.00 0.51 0.51 98 1011.6
20260507032958 13 50 1.6 3.2 0.18 0.51 0.51 98 1011.7
20260507032455 13 309 3.2 3.2 0.36 0.51 0.51 97 1012.2
20260507031951 13 130 1.6 3.2 0.18 0.48 0.48 96 1012.0
20260507031448 13 65 0.0 1.6 0.00 0.46 0.46 96 1012.0
20260507030944 13 41 0.0 0.0 0.00 0.46 0.46 95 1011.7
20260507030441 14 32 1.6 1.6 0.13 0.46 0.46 94 1011.8
20260507025938 14 356 11.3 16.1 0.13 0.46 0.46 92 1011.7
20260507025435 15 331 6.4 11.3 0.00 0.43 0.43 91 1011.9
20260507024933 15 291 6.4 8.0 0.00 0.43 0.43 92 1011.9
20260507024431 15 22 4.8 9.7 0.00 0.43 0.43 92 1011.9
20260507023926 15 354 8.0 9.7 0.00 0.43 0.43 92 1011.6
20260507023423 15 313 3.2 3.2 0.00 0.43 0.43 93 1011.8
20260507022920 15 328 9.7 12.9 0.00 0.43 0.43 93 1011.6
20260507022418 15 77 1.6 1.6 0.00 0.43 0.43 94 1011.6
20260507021913 15 352 3.2 8.0 0.00 0.43 0.43 95 1011.2
20260507021408 15 358 14.5 17.7 0.18 0.43 0.43 94 1011.4
20260507020907 15 56 4.8 8.0 0.18 0.43 0.43 96 1011.5
20260507020403 16 38 1.6 1.6 0.00 0.41 0.41 96 1011.6
20260507015900 16 69 0.0 1.6 0.00 0.41 0.41 96 1011.6
20260507015358 16 4 3.2 4.8 0.00 0.41 0.41 95 1011.4
20260507014855 16 333 3.2 3.2 0.00 0.41 0.41 94 1011.4
20260507014351 16 321 3.2 3.2 0.00 0.41 0.41 94 1011.6
20260507013848 16 349 3.2 4.8 0.00 0.41 0.41 93 1011.6
20260507013345 16 300 6.4 8.0 0.00 0.41 0.41 93 1011.5
20260507012842 16 68 1.6 1.6 0.00 0.41 0.41 94 1011.7
20260507012337 17 35 4.8 4.8 0.00 0.41 0.41 94 1011.6
20260507011834 17 25 1.6 1.6 0.00 0.41 0.41 94 1011.7
20260507011331 17 345 3.2 4.8 0.00 0.41 0.41 94 1011.9
20260507010826 17 357 0.0 0.0 0.00 0.41 0.41 95 1011.8
20260507010322 17 14 1.6 3.2 0.00 0.41 0.41 95 1011.8
20260507005819 17 228 3.2 4.8 0.00 0.41 0.41 95 1011.7
20260507005315 17 20 3.2 3.2 0.00 0.41 0.41 95 1011.3
20260507004807 17 344 3.2 3.2 0.00 0.41 0.41 95 1011.6
20260507004304 17 292 4.8 4.8 0.00 0.41 0.41 96 1011.5
20260507003801 17 320 4.8 4.8 0.00 0.41 0.41 96 1011.2
20260507003256 17 315 3.2 3.2 0.00 0.41 0.41 98 1011.2
20260507002752 18 338 1.6 3.2 0.00 0.41 0.41 99 1011.2
20260507002248 18 12 1.6 1.6 0.00 0.41 0.41 98 1010.9
20260507001745 18 147 0.0 0.0 0.00 0.41 0.41 98 1011.0
20260507001243 18 147 0.0 0.0 0.00 0.41 0.41 98 1010.8
20260507000739 18 148 0.0 0.0 0.00 0.41 0.41 98 1010.9
20260507000235 18 148 0.0 0.0 0.00 0.41 0.41 97 1010.9
20260506235731 18 324 1.6 3.2 0.00 0.41 0.41 96 1010.7
20260506235227 18 11 0.0 0.0 0.00 0.41 0.41 95 1010.4
20260506234724 18 12 0.0 0.0 0.00 0.41 0.41 94 1010.2
20260506234221 18 0 1.6 1.6 0.00 0.41 0.41 93 1010.3
20260506233719 18 2 1.6 1.6 0.00 0.41 0.41 93 1010.3
20260506233215 19 3 0.0 0.0 0.00 0.41 0.41 93 1010.3
20260506232711 19 3 1.6 1.6 0.00 0.41 0.41 93 1010.1
20260506232206 19 350 1.6 1.6 0.00 0.41 0.41 92 1010.1
20260506231704 19 283 3.2 3.2 0.00 0.41 0.41 92 1010.0
20260506231203 19 242 4.8 4.8 0.00 0.41 0.41 91 1010.0
20260506230659 19 263 3.2 3.2 0.00 0.41 0.41 91 1010.0
20260506230156 19 174 1.6 3.2 0.00 0.41 0.41 92 1009.9
20260506225652 19 322 1.6 1.6 0.00 0.41 0.41 91 1010.0
20260506225149 19 274 4.8 8.0 0.00 0.41 0.41 91 1010.3
20260506224645 19 219 4.8 4.8 0.00 0.41 0.41 91 1010.1
20260506224142 19 276 3.2 3.2 0.00 0.41 0.41 91 1010.3
20260506223639 19 268 4.8 4.8 0.00 0.41 0.41 91 1010.1
20260506223135 19 234 4.8 4.8 0.00 0.41 0.41 90 1010.2
20260506222632 19 261 8.0 9.7 0.00 0.41 0.41 90 1010.1
20260506222128 19 206 4.8 4.8 0.00 0.41 0.41 90 1010.0
20260506221626 19 214 6.4 8.0 0.00 0.41 0.41 90 1010.1
20260506221123 20 219 4.8 4.8 0.00 0.41 0.41 90 1010.1
20260506220620 19 216 3.2 3.2 0.00 0.41 0.41 91 1010.2
20260506220115 19 245 4.8 4.8 0.00 0.41 0.41 92 1010.1
20260506215612 19 256 4.8 4.8 0.00 0.41 0.41 92 1010.1
20260506215108 18 112 3.2 3.2 0.00 0.41 0.41 91 1009.9
20260506214605 19 222 6.4 8.0 0.00 0.41 0.41 91 1010.2
20260506214102 18 241 4.8 4.8 0.00 0.41 0.41 91 1010.0
20260506213600 18 272 4.8 4.8 0.00 0.41 0.41 91 1009.8
20260506213057 18 259 8.0 9.7 0.00 0.41 0.41 91 1009.7
20260506212554 19 227 4.8 4.8 0.00 0.41 0.41 91 1009.5
20260506212049 19 218 6.4 8.0 0.00 0.41 0.41 91 1009.6
20260506211545 19 247 4.8 8.0 0.00 0.41 0.41 90 1009.4
20260506211042 19 237 4.8 8.0 0.00 0.41 0.41 91 1009.5
20260506210539 19 268 6.4 9.7 0.00 0.41 0.41 91 1009.4
20260506210035 18 216 4.8 8.0 0.00 0.41 0.41 91 1009.5
20260506205532 18 259 6.4 9.7 0.00 0.41 0.41 90 1009.5
20260506205027 18 245 9.7 11.3 0.00 0.41 0.41 90 1009.3
20260506204526 18 216 8.0 11.3 0.00 0.41 0.41 90 1009.3
20260506204022 18 219 8.0 9.7 0.00 0.41 0.41 90 1009.3
20260506203521 18 270 9.7 14.5 0.00 0.41 0.41 91 1009.3
20260506203017 18 276 8.0 9.7 0.00 0.41 0.41 91 1009.6
20260506202514 18 287 3.2 4.8 0.00 0.41 0.41 92 1009.3
20260506202010 18 196 11.3 11.3 0.00 0.41 0.41 92 1009.4
20260506201508 18 228 6.4 8.0 0.00 0.41 0.41 93 1009.5
20260506200958 18 216 6.4 8.0 0.00 0.41 0.41 94 1009.4
20260506200454 18 233 4.8 8.0 0.00 0.41 0.41 93 1009.5
20260506195945 18 219 8.0 9.7 0.00 0.41 0.41 93 1009.5
20260506195443 18 260 6.4 8.0 0.00 0.41 0.41 94 1009.4
20260506194939 18 249 12.9 14.5 0.00 0.41 0.41 93 1009.4
20260506194437 18 204 6.4 8.0 0.00 0.41 0.41 93 1009.4
20260506193933 18 240 4.8 9.7 0.00 0.41 0.41 94 1009.7
20260506193430 18 251 8.0 9.7 0.00 0.41 0.41 94 1009.4
20260506192927 18 220 11.3 14.5 0.00 0.41 0.41 94 1009.4
20260506192424 18 238 11.3 16.1 0.00 0.41 0.41 96 1009.4
20260506191921 17 233 8.0 9.7 0.00 0.41 0.41 95 1009.4
20260506191417 17 181 8.0 11.3 0.00 0.41 0.41 95 1009.7
20260506190914 17 205 11.3 12.9 0.00 0.41 0.41 96 1009.6
20260506190410 17 254 12.9 16.1 0.00 0.41 0.41 96 1009.7
20260506185907 17 262 11.3 16.1 0.00 0.41 0.41 97 1009.7
20260506185405 17 276 11.3 16.1 0.00 0.41 0.41 97 1009.7
20260506184902 17 177 8.0 12.9 0.00 0.41 0.41 97 1009.8
20260506184358 17 256 8.0 9.7 0.00 0.41 0.41 98 1009.8
20260506183856 17 274 9.7 11.3 0.00 0.41 0.41 97 1009.7
20260506183350 17 267 6.4 9.7 0.00 0.41 0.41 98 1009.8
20260506182848 17 230 9.7 12.9 0.00 0.41 0.41 99 1009.9
20260506182345 16 232 9.7 11.3 0.00 0.41 0.41 99 1009.9
20260506181843 16 247 6.4 9.7 0.00 0.41 0.41 99 1010.1
20260506181341 16 142 8.0 11.3 0.00 0.41 0.41 99 1010.1
20260506180837 16 243 9.7 11.3 0.00 0.41 0.41 99 1010.3
20260506180333 16 225 4.8 8.0 0.00 0.41 0.41 99 1010.2
20260506175830 16 266 8.0 9.7 0.00 0.41 0.41 99 1010.3
20260506175327 15 219 9.7 12.9 0.00 0.41 0.41 99 1010.3
20260506174824 15 209 14.5 17.7 0.00 0.41 0.41 99 1010.5
20260506174321 15 237 11.3 12.9 0.00 0.41 0.41 99 1010.3
20260506173819 15 263 4.8 8.0 0.00 0.41 0.41 99 1010.1
20260506173316 15 249 4.8 8.0 0.00 0.41 0.41 99 1010.2
20260506172813 15 224 8.0 11.3 0.00 0.41 0.41 99 1010.3
20260506172309 15 177 6.4 8.0 0.00 0.41 0.41 99 1010.2
20260506171807 15 237 12.9 16.1 0.00 0.41 0.41 99 1009.9
20260506171303 15 245 11.3 12.9 0.00 0.41 0.41 99 1010.2
20260506170801 15 229 9.7 12.9 0.00 0.41 0.41 99 1010.4
20260506170257 15 186 6.4 11.3 0.00 0.41 0.41 99 1010.3
20260506165756 15 204 9.7 11.3 0.00 0.41 0.41 99 1010.0
20260506165253 15 215 11.3 16.1 0.00 0.41 0.41 99 1010.1
20260506164750 15 239 4.8 8.0 0.00 0.41 0.41 99 1010.3
20260506164247 15 279 4.8 4.8 0.00 0.41 0.41 99 1010.4
20260506163744 15 277 4.8 8.0 0.00 0.41 0.41 99 1010.2
20260506163238 15 214 4.8 4.8 0.00 0.41 0.41 99 1010.3
20260506162735 15 196 9.7 11.3 0.00 0.41 0.41 99 1010.4
20260506162232 15 104 0.0 1.6 0.00 0.41 0.41 99 1010.2
20260506161724 15 234 6.4 8.0 0.00 0.41 0.41 99 1010.5
20260506161221 15 137 6.4 8.0 0.00 0.41 0.41 99 1010.5
20260506160719 15 275 4.8 8.0 0.00 0.41 0.41 99 1010.6
20260506160215 15 245 9.7 11.3 0.00 0.41 0.41 99 1010.5
20260506155713 15 218 8.0 9.7 0.00 0.41 0.41 99 1010.4
20260506155210 15 145 6.4 8.0 0.00 0.41 0.41 99 1010.3
20260506153312 15 197 4.8 8.0 0.00 0.41 0.41 99 1010.4
20260506152809 15 223 9.7 14.5 0.00 0.41 0.41 99 1010.3
20260506152306 15 228 4.8 8.0 0.13 0.41 0.41 99 1010.6
20260506151805 15 108 9.7 11.3 0.18 0.38 0.38 99 1010.7
20260506151301 15 152 8.0 11.3 0.30 0.38 0.38 99 1010.8
20260506150758 15 220 9.7 11.3 0.30 0.36 0.36 99 1010.8
20260506150302 15 176 9.7 11.3 0.18 0.33 0.33 99 1011.1
20260506145752 15 252 12.9 17.7 0.13 0.30 0.30 99 1011.4
20260506145248 15 221 6.4 8.0 0.30 0.30 0.30 99 1011.1
20260506144746 15 243 9.7 11.3 0.18 0.28 0.28 99 1010.9
20260506144243 15 147 9.7 11.3 0.00 0.25 0.25 99 1010.9
20260506143740 15 173 9.7 11.3 0.00 0.25 0.25 99 1010.9
20260506143237 15 215 8.0 11.3 0.00 0.25 0.25 99 1011.1
20260506142736 15 198 11.3 12.9 0.13 0.25 0.25 99 1010.5
20260506142233 15 191 12.9 16.1 0.13 0.25 0.25 99 1011.0
20260506141731 15 95 12.9 17.7 0.00 0.23 0.23 99 1010.7
20260506141230 15 174 3.2 4.8 0.00 0.23 0.23 99 1010.6
20260506140727 15 195 8.0 11.3 0.18 0.23 0.23 99 1010.4
20260506140224 15 243 11.3 12.9 0.18 0.23 0.23 99 1010.8
20260506135720 15 190 11.3 12.9 0.13 0.20 0.20 99 1010.9
20260506135217 15 245 8.0 9.7 0.13 0.20 0.20 99 1011.1
20260506134714 15 189 4.8 8.0 0.18 0.18 0.18 99 1011.3
20260506134210 15 238 8.0 9.7 0.18 0.18 0.18 99 1011.3
20260506133707 15 156 4.8 8.0 0.00 0.15 0.15 99 1011.2
20260506133203 15 171 6.4 9.7 0.18 0.15 0.15 99 1011.1
20260506132701 15 200 8.0 12.9 0.13 0.13 0.13 99 1011.2
20260506132158 15 219 4.8 8.0 0.30 0.13 0.13 98 1011.2
20260506131655 15 214 11.3 12.9 0.30 0.10 0.10 98 1011.4
20260506131151 15 202 4.8 4.8 0.13 0.08 0.08 97 1011.1
20260506130648 15 281 3.2 4.8 0.00 0.05 0.05 97 1011.1
20260506130146 16 186 6.4 8.0 0.18 0.05 0.05 96 1011.1
20260506125644 16 227 6.4 9.7 0.18 0.05 0.05 95 1011.3
20260506125141 16 155 4.8 4.8 0.18 0.05 0.05 93 1011.3
20260506124639 16 155 4.8 4.8 0.13 0.03 0.03 92 1010.9
20260506124137 16 222 8.0 9.7 0.13 0.03 0.03 91 1011.2
20260506123634 16 224 4.8 4.8 0.00 0.00 0.00 90 1011.0
20260506123133 16 251 8.0 11.3 0.00 0.00 0.00 89 1011.3
20260506122629 17 149 3.2 3.2 0.00 0.00 0.00 88 1011.2
20260506122127 17 182 4.8 9.7 0.00 0.00 0.00 87 1011.4
20260506121624 17 274 14.5 16.1 0.00 0.00 0.00 85 1011.4
20260506121120 17 225 9.7 14.5 0.00 0.00 0.00 85 1011.5
20260506120618 17 236 14.5 14.5 0.00 0.00 0.00 84 1011.5
20260506120115 17 212 4.8 8.0 0.00 0.00 0.00 82 1011.5
20260506115614 17 241 6.4 9.7 0.00 0.00 0.00 83 1011.7
20260506115112 17 354 4.8 8.0 0.00 0.00 0.00 82 1011.3
20260506114609 17 251 6.4 8.0 0.00 0.00 0.00 83 1011.2
20260506114107 17 278 9.7 12.9 0.00 0.00 0.00 82 1011.3
20260506113604 17 186 8.0 11.3 0.00 0.00 0.00 82 1011.0
20260506113102 17 235 9.7 11.3 0.00 0.00 0.00 82 1011.1
20260506112558 17 217 8.0 9.7 0.00 0.00 0.00 82 1010.9
20260506112056 17 121 6.4 8.0 0.00 0.00 0.00 82 1010.7
20260506111553 17 192 8.0 9.7 0.00 0.00 0.00 82 1011.0
20260506111050 17 217 8.0 8.0 0.00 0.00 0.00 81 1010.8
20260506110548 17 262 4.8 8.0 0.00 0.00 0.00 80 1010.6
20260506110045 18 261 4.8 8.0 0.00 0.00 0.00 79 1011.0
20260506105541 18 181 17.7 20.9 0.00 0.00 0.00 79 1010.7
20260506105039 18 214 9.7 12.9 0.00 0.00 0.00 79 1010.7
20260506104536 18 190 8.0 9.7 0.00 0.00 0.00 78 1010.6
20260506104034 18 216 9.7 12.9 0.00 0.00 0.00 78 1010.6
20260506103531 18 229 4.8 4.8 0.00 0.00 0.00 78 1010.5
20260506103028 18 210 4.8 8.0 0.00 0.00 0.00 78 1010.5
20260506102526 18 261 14.5 16.1 0.00 0.00 0.00 78 1010.4
20260506102023 18 131 3.2 4.8 0.00 0.00 0.00 78 1010.2
20260506101520 18 265 4.8 4.8 0.00 0.00 0.00 78 1010.3
20260506101017 18 198 11.3 16.1 0.00 0.00 0.00 77 1010.4
20260506100515 18 248 16.1 16.1 0.00 0.00 0.00 77 1010.4
20260506100013 18 211 12.9 14.5 0.00 0.00 0.00 77 1010.3
20260506095512 18 185 12.9 16.1 0.00 0.00 0.00 77 1010.5
20260506095007 18 230 8.0 9.7 0.00 0.00 0.00 76 1010.5
20260506094505 18 155 4.8 8.0 0.00 0.00 0.00 76 1010.7
20260506094003 18 227 8.0 11.3 0.00 0.00 0.00 76 1010.3
20260506093501 18 186 4.8 8.0 0.00 0.00 0.00 76 1010.4
20260506092958 18 178 8.0 9.7 0.00 0.00 0.00 76 1010.5
20260506092456 18 245 6.4 9.7 0.00 0.00 0.00 76 1010.3
20260506091952 18 166 8.0 9.7 0.00 0.00 0.00 75 1010.5
20260506091451 18 186 9.7 11.3 0.00 0.00 0.00 75 1010.4
20260506090947 18 199 1.6 3.2 0.00 0.00 0.00 75 1010.5
20260506090445 18 266 9.7 14.5 0.00 0.00 0.00 75 1010.6
20260506085941 18 175 4.8 4.8 0.00 0.00 0.00 74 1010.6
20260506085438 18 287 1.6 3.2 0.00 0.00 0.00 74 1010.6
20260506084935 18 233 4.8 4.8 0.00 0.00 0.00 73 1010.5
20260506084432 18 183 6.4 8.0 0.00 0.00 0.00 73 1010.9
20260506083928 18 266 8.0 11.3 0.00 0.00 0.00 73 1010.8
20260506083425 18 170 9.7 11.3 0.00 0.00 0.00 73 1010.8
20260506082922 18 220 4.8 4.8 0.00 0.00 0.00 72 1010.4
20260506082420 19 132 1.6 3.2 0.00 0.00 0.00 71 1010.7
20260506081915 19 250 6.4 11.3 0.00 0.00 0.00 71 1010.7
20260506081414 19 260 4.8 8.0 0.00 0.00 0.00 70 1010.6
20260506080911 19 236 8.0 9.7 0.00 0.00 0.00 70 1010.8
20260506080407 20 350 3.2 3.2 0.00 0.00 0.00 70 1010.7
20260506073351 20 196 11.3 12.9 0.00 0.00 0.00 67 1010.7
20260506072848 20 152 4.8 4.8 0.00 0.00 0.00 68 1010.9
20260506072346 20 197 11.3 14.5 0.00 0.00 0.00 67 1010.8